Time,TemperatureF,DewpointF,PressureIn,WindDirection,WindDirectionDegrees,WindSpeedMPH,WindSpeedGustMPH,Humidity,HourlyPrecipIn,Conditions,Clouds,dailyrainin,SolarRadiationWatts/m^2,SoftwareType,DateUTC
2013-01-24 00:01:00,55.6,41.5,29.96,ESE,110,0.0,0.0,59,0.00,,,0.00,0.00,VWS V14.01,2013-01-24 08:01:00,
2013-01-24 00:06:00,55.6,42.0,29.96,ESE,110,0.0,0.0,60,0.00,,,0.00,0.00,VWS V14.01,2013-01-24 08:06:00,
2013-01-24 00:11:00,55.4,41.8,29.96,ESE,110,0.0,2.0,60,0.00,,,0.00,0.00,VWS V14.01,2013-01-24 08:11:00,
2013-01-24 00:16:00,55.3,41.7,29.94,ESE,110,0.0,0.0,60,0.00,,,0.00,0.00,VWS V14.01,2013-01-24 08:16:00,
2013-01-24 00:21:00,55.1,41.5,29.94,ESE,110,0.0,1.0,60,0.00,,,0.00,0.00,VWS V14.01,2013-01-24 08:21:00,
2013-01-24 00:26:00,55.1,41.5,29.94,ESE,110,0.0,0.0,60,0.00,,,0.00,0.00,VWS V14.01,2013-01-24 08:26:00,
2013-01-24 00:31:00,55.3,41.7,29.94,ESE,110,0.0,0.0,60,0.00,,,0.00,0.00,VWS V14.01,2013-01-24 08:31:00,
2013-01-24 00:36:00,55.1,41.5,29.94,ESE,110,0.0,0.0,60,0.00,,,0.00,0.00,VWS V14.01,2013-01-24 08:36:00,
2013-01-24 00:41:00,55.1,41.5,29.94,ESE,110,0.0,0.0,60,0.00,,,0.00,0.00,VWS V14.01,2013-01-24 08:41:00,
2013-01-24 00:46:00,55.1,41.5,29.93,ESE,110,0.0,0.0,60,0.00,,,0.00,0.00,VWS V14.01,2013-01-24 08:46:00,
2013-01-24 00:51:00,55.3,41.7,29.93,ESE,110,0.0,0.0,60,0.00,,,0.00,0.00,VWS V14.01,2013-01-24 08:51:00,
2013-01-24 00:56:00,55.3,41.7,29.93,ESE,110,0.0,0.0,60,0.00,,,0.00,0.00,VWS V14.01,2013-01-24 08:56:00,
2013-01-24 01:01:00,55.4,41.8,29.94,ESE,110,0.0,0.0,60,0.00,,,0.00,0.00,VWS V14.01,2013-01-24 09:01:00,
2013-01-24 01:06:00,55.4,41.8,29.94,ESE,110,0.0,0.0,60,0.00,,,0.00,0.00,VWS V14.01,2013-01-24 09:06:00,
2013-01-24 01:11:00,55.4,41.8,29.94,ESE,110,0.0,0.0,60,0.00,,,0.00,0.00,VWS V14.01,2013-01-24 09:11:00,
2013-01-24 01:16:00,55.6,42.0,29.93,ESE,110,0.0,0.0,60,0.00,,,0.00,0.00,VWS V14.01,2013-01-24 09:16:00,
2013-01-24 01:21:00,55.4,42.2,29.93,ESE,110,0.0,0.0,61,0.00,,,0.00,0.00,VWS V14.01,2013-01-24 09:21:00,
2013-01-24 01:26:00,55.3,42.1,29.93,ESE,110,0.0,0.0,61,0.00,,,0.00,0.00,VWS V14.01,2013-01-24 09:26:00,
2013-01-24 01:31:00,55.1,41.9,29.93,ESE,110,0.0,0.0,61,0.00,,,0.00,0.00,VWS V14.01,2013-01-24 09:31:00,
2013-01-24 01:36:00,55.1,42.3,29.93,ESE,110,0.0,0.0,62,0.00,,,0.00,0.00,VWS V14.01,2013-01-24 09:36:00,
2013-01-24 01:41:00,55.3,42.5,29.93,ESE,110,0.0,0.0,62,0.00,,,0.00,0.00,VWS V14.01,2013-01-24 09:41:00,
2013-01-24 01:46:00,55.3,42.5,29.93,ESE,110,0.0,0.0,62,0.00,,,0.00,0.00,VWS V14.01,2013-01-24 09:46:00,
2013-01-24 01:51:00,55.3,42.5,29.93,ESE,110,0.0,0.0,62,0.00,,,0.00,0.00,VWS V14.01,2013-01-24 09:51:00,
2013-01-24 01:56:00,55.1,42.3,29.93,ESE,110,0.0,0.0,62,0.00,,,0.00,0.00,VWS V14.01,2013-01-24 09:56:00,
2013-01-24 02:01:00,55.1,42.8,29.93,ESE,110,0.0,0.0,63,0.00,,,0.00,0.00,VWS V14.01,2013-01-24 10:01:00,
2013-01-24 02:06:00,55.3,42.9,29.93,ESE,110,0.0,0.0,63,0.00,,,0.00,0.00,VWS V14.01,2013-01-24 10:06:00,
2013-01-24 02:11:00,55.4,43.0,29.93,ESE,110,0.0,0.0,63,0.00,,,0.00,0.00,VWS V14.01,2013-01-24 10:11:00,
2013-01-24 02:16:00,55.6,43.2,29.94,ESE,110,0.0,0.0,63,0.00,,,0.00,0.00,VWS V14.01,2013-01-24 10:16:00,
2013-01-24 02:21:00,55.7,43.3,29.94,WSW,251,4.0,4.0,63,0.00,,,0.00,0.00,VWS V14.01,2013-01-24 10:21:00,
2013-01-24 02:26:00,55.7,43.3,29.94,West,265,2.0,2.0,63,0.00,,,0.00,0.00,VWS V14.01,2013-01-24 10:26:00,
2013-01-24 02:31:00,55.7,43.3,29.94,West,264,1.0,1.0,63,0.00,,,0.00,0.00,VWS V14.01,2013-01-24 10:31:00,
2013-01-24 02:36:00,56.2,44.2,29.94,WSW,251,4.0,4.0,64,0.00,,,0.00,0.00,VWS V14.01,2013-01-24 10:36:00,
2013-01-24 02:41:00,55.7,43.7,29.94,WSW,256,0.0,0.0,64,0.00,,,0.00,0.00,VWS V14.01,2013-01-24 10:41:00,
2013-01-24 02:46:00,55.1,43.2,29.94,WSW,257,2.0,2.0,64,0.00,,,0.00,0.00,VWS V14.01,2013-01-24 10:46:00,
2013-01-24 02:51:00,54.1,42.6,29.94,WNW,289,2.0,6.0,65,0.00,,,0.00,0.00,VWS V14.01,2013-01-24 10:51:00,
2013-01-24 02:57:00,53.2,42.5,29.94,West,260,9.0,9.0,67,0.00,,,0.00,0.00,VWS V14.01,2013-01-24 10:57:00,
2013-01-24 03:02:00,52.5,41.9,29.95,West,267,6.0,7.0,67,0.00,,,0.00,0.00,VWS V14.01,2013-01-24 11:02:00,
2013-01-24 03:07:00,52.0,42.5,29.95,WNW,301,8.0,8.0,70,0.00,,,0.00,0.00,VWS V14.01,2013-01-24 11:07:00,
2013-01-24 03:12:00,51.7,42.6,29.95,WNW,294,2.0,2.0,71,0.00,,,0.00,0.00,VWS V14.01,2013-01-24 11:12:00,
2013-01-24 03:17:00,51.6,42.9,29.95,WNW,296,1.0,4.0,72,0.00,,,0.00,0.00,VWS V14.01,2013-01-24 11:17:00,
2013-01-24 03:22:00,51.3,43.0,29.95,WNW,298,2.0,6.0,73,0.00,,,0.00,0.00,VWS V14.01,2013-01-24 11:22:00,
2013-01-24 03:27:00,51.1,43.1,29.95,NW,312,2.0,2.0,74,0.00,,,0.00,0.00,VWS V14.01,2013-01-24 11:27:00,
2013-01-24 03:32:00,51.0,43.0,29.95,NW,320,1.0,4.0,74,0.00,,,0.00,0.00,VWS V14.01,2013-01-24 11:32:00,
2013-01-24 03:37:00,50.8,43.2,29.95,NW,320,0.0,0.0,75,0.00,,,0.00,0.00,VWS V14.01,2013-01-24 11:37:00,
2013-01-24 03:42:00,50.8,43.2,29.95,NW,322,0.0,0.0,75,0.00,,,0.00,0.00,VWS V14.01,2013-01-24 11:42:00,
2013-01-24 03:47:00,50.7,43.4,29.95,NW,322,0.0,0.0,76,0.00,,,0.00,0.00,VWS V14.01,2013-01-24 11:47:00,
2013-01-24 03:52:00,50.7,43.4,29.95,NW,322,0.0,0.0,76,0.00,,,0.00,0.00,VWS V14.01,2013-01-24 11:52:00,
2013-01-24 03:57:00,50.5,43.2,29.95,NW,322,0.0,0.0,76,0.00,,,0.00,0.00,VWS V14.01,2013-01-24 11:57:00,
2013-01-24 04:02:00,50.5,43.2,29.94,NW,322,0.0,0.0,76,0.00,,,0.00,0.00,VWS V14.01,2013-01-24 12:02:00,
2013-01-24 04:07:00,50.5,43.6,29.94,NW,322,0.0,0.0,77,0.00,,,0.00,0.00,VWS V14.01,2013-01-24 12:07:00,
2013-01-24 04:12:00,50.4,43.5,29.94,NNW,347,0.0,2.0,77,0.00,,,0.00,0.00,VWS V14.01,2013-01-24 12:12:00,
2013-01-24 04:17:00,50.4,43.5,29.94,NW,309,0.0,0.0,77,0.00,,,0.00,0.00,VWS V14.01,2013-01-24 12:17:00,
2013-01-24 04:22:00,50.4,43.8,29.94,NW,322,0.0,0.0,78,0.00,,,0.00,0.00,VWS V14.01,2013-01-24 12:22:00,
2013-01-24 04:27:00,50.2,43.6,29.94,NW,322,0.0,0.0,78,0.00,,,0.00,0.00,VWS V14.01,2013-01-24 12:27:00,
2013-01-24 04:32:00,50.2,43.6,29.95,NW,322,0.0,0.0,78,0.00,,,0.00,0.00,VWS V14.01,2013-01-24 12:32:00,
2013-01-24 04:37:00,50.2,44.0,29.95,NW,320,2.0,2.0,79,0.00,,,0.00,0.00,VWS V14.01,2013-01-24 12:37:00,
2013-01-24 04:42:00,50.2,44.0,29.95,NW,313,0.0,0.0,79,0.00,,,0.00,0.00,VWS V14.01,2013-01-24 12:42:00,
2013-01-24 04:47:00,50.2,44.0,29.95,NW,304,2.0,4.0,79,0.00,,,0.00,0.00,VWS V14.01,2013-01-24 12:47:00,
2013-01-24 04:52:00,50.1,44.2,29.95,WNW,301,1.0,2.0,80,0.00,,,0.00,0.00,VWS V14.01,2013-01-24 12:52:00,
2013-01-24 04:57:00,50.1,44.2,29.95,WNW,301,1.0,4.0,80,0.00,,,0.00,0.00,VWS V14.01,2013-01-24 12:57:00,
2013-01-24 05:02:00,50.1,44.2,29.96,WNW,301,1.0,1.0,80,0.00,,,0.00,0.00,VWS V14.01,2013-01-24 13:02:00,
2013-01-24 05:07:00,50.1,44.2,29.96,WNW,302,2.0,2.0,80,0.00,,,0.00,0.00,VWS V14.01,2013-01-24 13:07:00,
2013-01-24 05:12:00,49.9,44.0,29.96,WNW,301,4.0,4.0,80,0.00,,,0.00,0.00,VWS V14.01,2013-01-24 13:12:00,
2013-01-24 05:17:00,49.9,44.0,29.96,WNW,301,0.0,0.0,80,0.00,,,0.00,0.00,VWS V14.01,2013-01-24 13:17:00,
2013-01-24 05:22:00,49.9,44.3,29.96,NW,304,1.0,2.0,81,0.00,,,0.00,0.00,VWS V14.01,2013-01-24 13:22:00,
2013-01-24 05:27:00,49.9,44.3,29.96,NW,304,1.0,2.0,81,0.00,,,0.00,0.00,VWS V14.01,2013-01-24 13:27:00,
2013-01-24 05:32:00,49.9,44.3,29.96,NW,304,0.0,0.0,81,0.00,,,0.00,0.00,VWS V14.01,2013-01-24 13:32:00,
2013-01-24 05:37:00,49.9,44.3,29.96,NW,305,0.0,0.0,81,0.00,,,0.00,0.00,VWS V14.01,2013-01-24 13:37:00,
2013-01-24 05:42:00,49.8,44.2,29.96,NW,305,0.0,0.0,81,0.00,,,0.00,0.00,VWS V14.01,2013-01-24 13:42:00,
2013-01-24 05:47:00,49.6,44.3,29.97,WNW,296,1.0,6.0,82,0.00,,,0.00,0.00,VWS V14.01,2013-01-24 13:47:00,
2013-01-24 05:52:00,49.5,44.2,29.97,WNW,296,2.0,4.0,82,0.00,,,0.00,0.00,VWS V14.01,2013-01-24 13:52:00,
2013-01-24 05:57:00,49.4,44.1,29.97,West,267,2.0,2.0,82,0.00,,,0.00,0.00,VWS V14.01,2013-01-24 13:57:00,
2013-01-24 06:02:00,49.4,44.1,29.98,WNW,287,0.0,0.0,82,0.00,,,0.00,0.00,VWS V14.01,2013-01-24 14:02:00,
2013-01-24 06:07:00,49.4,44.1,29.98,WNW,287,1.0,1.0,82,0.00,,,0.00,0.00,VWS V14.01,2013-01-24 14:07:00,
2013-01-24 06:12:00,49.2,44.3,29.98,WNW,289,2.0,4.0,83,0.00,,,0.00,0.00,VWS V14.01,2013-01-24 14:12:00,
2013-01-24 06:17:00,49.2,44.3,29.99,WNW,292,2.0,2.0,83,0.00,,,0.00,0.00,VWS V14.01,2013-01-24 14:17:00,
2013-01-24 06:22:00,49.2,44.3,29.99,WNW,292,0.0,0.0,83,0.00,,,0.00,0.00,VWS V14.01,2013-01-24 14:22:00,
2013-01-24 06:27:00,49.2,44.3,29.99,WNW,294,0.0,0.0,83,0.01,,,0.01,0.00,VWS V14.01,2013-01-24 14:27:00,
2013-01-24 06:32:00,49.1,44.2,30.00,WNW,294,0.0,0.0,83,0.01,,,0.01,0.00,VWS V14.01,2013-01-24 14:32:00,
2013-01-24 06:37:00,49.1,44.2,30.00,WNW,294,0.0,0.0,83,0.01,,,0.01,0.00,VWS V14.01,2013-01-24 14:37:00,
2013-01-24 06:42:00,49.1,44.2,30.00,WNW,295,0.0,1.0,83,0.01,,,0.01,0.00,VWS V14.01,2013-01-24 14:42:00,
2013-01-24 06:47:00,49.1,44.5,30.01,WNW,294,0.0,0.0,84,0.01,,,0.01,0.00,VWS V14.01,2013-01-24 14:47:00,
2013-01-24 06:52:00,49.1,44.5,30.01,WNW,294,0.0,0.0,84,0.01,,,0.01,0.00,VWS V14.01,2013-01-24 14:52:00,
2013-01-24 06:57:00,48.9,44.3,30.01,WNW,294,0.0,0.0,84,0.01,,,0.01,0.00,VWS V14.01,2013-01-24 14:57:00,
2013-01-24 07:02:00,48.9,44.3,30.01,WNW,294,0.0,0.0,84,0.01,,,0.01,0.00,VWS V14.01,2013-01-24 15:02:00,
2013-01-24 07:07:00,48.9,44.3,30.01,WNW,294,0.0,0.0,84,0.01,,,0.01,0.00,VWS V14.01,2013-01-24 15:07:00,
2013-01-24 07:12:00,48.9,44.3,30.01,WNW,294,0.0,0.0,84,0.01,,,0.01,0.00,VWS V14.01,2013-01-24 15:12:00,
2013-01-24 07:17:00,48.8,44.2,30.01,WNW,294,0.0,0.0,84,0.01,,,0.01,0.00,VWS V14.01,2013-01-24 15:17:00,
2013-01-24 07:22:00,48.9,44.6,30.01,WNW,294,0.0,0.0,85,0.01,,,0.01,0.00,VWS V14.01,2013-01-24 15:22:00,
2013-01-24 07:27:00,48.9,44.6,30.01,WNW,294,0.0,0.0,85,0.00,,,0.01,0.00,VWS V14.01,2013-01-24 15:27:00,
2013-01-24 07:32:00,48.9,44.6,30.01,WNW,294,0.0,0.0,85,0.00,,,0.01,5.00,VWS V14.01,2013-01-24 15:32:00,
2013-01-24 07:37:00,48.9,44.6,30.01,WNW,296,0.0,0.0,85,0.00,,,0.01,5.00,VWS V14.01,2013-01-24 15:37:00,
2013-01-24 07:42:00,48.9,44.6,30.01,WNW,294,0.0,0.0,85,0.00,,,0.01,5.00,VWS V14.01,2013-01-24 15:42:00,
2013-01-24 07:47:00,49.1,44.8,30.01,WNW,294,0.0,0.0,85,0.00,,,0.01,5.00,VWS V14.01,2013-01-24 15:47:00,
2013-01-24 07:52:00,49.1,44.8,30.01,WNW,294,0.0,0.0,85,0.00,,,0.01,7.00,VWS V14.01,2013-01-24 15:52:00,
2013-01-24 07:57:00,49.1,44.8,30.01,WNW,294,0.0,0.0,85,0.00,,,0.01,9.00,VWS V14.01,2013-01-24 15:57:00,
2013-01-24 08:02:00,49.2,45.2,30.02,WNW,294,0.0,0.0,86,0.00,,,0.01,14.00,VWS V14.01,2013-01-24 16:02:00,
2013-01-24 08:07:00,49.2,45.2,30.02,WNW,294,0.0,0.0,86,0.00,,,0.01,16.00,VWS V14.01,2013-01-24 16:07:00,
2013-01-24 08:12:00,49.2,45.2,30.02,WNW,294,0.0,0.0,86,0.00,,,0.01,16.00,VWS V14.01,2013-01-24 16:12:00,
2013-01-24 08:17:00,49.2,45.2,30.02,WNW,294,0.0,0.0,86,0.00,,,0.01,18.00,VWS V14.01,2013-01-24 16:17:00,
2013-01-24 08:22:00,49.4,45.4,30.02,WNW,295,0.0,0.0,86,0.00,,,0.01,18.00,VWS V14.01,2013-01-24 16:22:00,
2013-01-24 08:27:00,49.5,45.5,30.02,WNW,295,0.0,0.0,86,0.00,,,0.01,26.00,VWS V14.01,2013-01-24 16:27:00,
2013-01-24 08:32:00,49.6,45.6,30.02,ENE,64,0.0,0.0,86,0.00,,,0.01,32.00,VWS V14.01,2013-01-24 16:32:00,
2013-01-24 08:37:00,49.6,45.6,30.02,ENE,65,0.0,0.0,86,0.00,,,0.01,32.00,VWS V14.01,2013-01-24 16:37:00,
2013-01-24 08:42:00,49.6,45.6,30.02,ENE,66,0.0,0.0,86,0.00,,,0.01,44.00,VWS V14.01,2013-01-24 16:42:00,
2013-01-24 08:47:00,49.8,45.8,30.02,ENE,65,0.0,0.0,86,0.00,,,0.01,76.00,VWS V14.01,2013-01-24 16:47:00,
2013-01-24 08:52:00,50.1,46.4,30.02,ENE,65,0.0,0.0,87,0.00,,,0.01,95.00,VWS V14.01,2013-01-24 16:52:00,
2013-01-24 08:57:00,50.4,46.7,30.02,ENE,65,0.0,0.0,87,0.00,,,0.01,113.00,VWS V14.01,2013-01-24 16:57:00,
2013-01-24 09:02:00,50.5,46.8,30.03,ENE,65,1.0,2.0,87,0.00,,,0.01,125.00,VWS V14.01,2013-01-24 17:02:00,
2013-01-24 09:07:00,50.8,47.1,30.03,ENE,65,0.0,0.0,87,0.00,,,0.01,127.00,VWS V14.01,2013-01-24 17:07:00,
2013-01-24 09:12:00,51.1,47.7,30.03,ENE,66,0.0,0.0,88,0.00,,,0.01,127.00,VWS V14.01,2013-01-24 17:12:00,
2013-01-24 09:17:00,51.4,48.0,30.04,ENE,66,0.0,0.0,88,0.00,,,0.01,116.00,VWS V14.01,2013-01-24 17:17:00,
2013-01-24 09:22:00,51.4,48.0,30.04,ENE,66,0.0,0.0,88,0.00,,,0.01,93.00,VWS V14.01,2013-01-24 17:22:00,
2013-01-24 09:27:00,51.7,48.3,30.04,ENE,65,0.0,0.0,88,0.00,,,0.01,81.00,VWS V14.01,2013-01-24 17:27:00,
2013-01-24 09:32:00,52.0,48.6,30.04,ENE,65,0.0,0.0,88,0.00,,,0.01,104.00,VWS V14.01,2013-01-24 17:32:00,
2013-01-24 09:37:00,52.2,48.8,30.04,ENE,66,0.0,0.0,88,0.00,,,0.01,120.00,VWS V14.01,2013-01-24 17:37:00,
2013-01-24 09:42:00,52.5,49.0,30.04,ENE,68,2.0,2.0,88,0.00,,,0.01,150.00,VWS V14.01,2013-01-24 17:42:00,
2013-01-24 09:47:00,52.8,49.3,30.04,ENE,69,0.0,2.0,88,0.00,,,0.01,139.00,VWS V14.01,2013-01-24 17:47:00,
2013-01-24 09:52:00,53.1,50.0,30.04,East,99,0.0,0.0,89,0.00,,,0.01,141.00,VWS V14.01,2013-01-24 17:52:00,
2013-01-24 09:57:00,53.1,49.7,30.04,South,171,6.0,6.0,88,0.01,,,0.02,151.00,VWS V14.01,2013-01-24 17:57:00,
2013-01-24 10:02:00,53.3,49.8,30.05,South,176,2.0,4.0,88,0.01,,,0.02,165.00,VWS V14.01,2013-01-24 18:02:00,
2013-01-24 10:07:00,53.3,49.8,30.05,South,191,2.0,7.0,88,0.01,,,0.02,158.00,VWS V14.01,2013-01-24 18:07:00,
2013-01-24 10:12:00,53.5,50.0,30.05,South,179,0.0,2.0,88,0.01,,,0.02,164.00,VWS V14.01,2013-01-24 18:12:00,
2013-01-24 10:17:00,53.3,49.8,30.05,SSW,192,2.0,2.0,88,0.01,,,0.02,178.00,VWS V14.01,2013-01-24 18:17:00,
2013-01-24 10:22:00,53.3,49.8,30.05,SSW,192,0.0,0.0,88,0.01,,,0.02,178.00,VWS V14.01,2013-01-24 18:22:00,
2013-01-24 10:27:00,53.9,50.1,30.05,SSW,193,0.0,0.0,87,0.01,,,0.02,223.00,VWS V14.01,2013-01-24 18:27:00,
2013-01-24 10:32:00,53.9,50.1,30.06,SSW,192,0.0,0.0,87,0.01,,,0.02,192.00,VWS V14.01,2013-01-24 18:32:00,
2013-01-24 10:37:00,54.1,50.3,30.06,SSW,192,2.0,4.0,87,0.01,,,0.02,192.00,VWS V14.01,2013-01-24 18:37:00,
2013-01-24 10:42:00,54.2,50.1,30.06,SSW,192,2.0,2.0,86,0.01,,,0.02,206.00,VWS V14.01,2013-01-24 18:42:00,
2013-01-24 10:47:00,54.4,50.0,30.05,SSW,192,0.0,1.0,85,0.01,,,0.02,262.00,VWS V14.01,2013-01-24 18:47:00,
2013-01-24 10:52:00,54.5,49.8,30.05,SSW,192,0.0,0.0,84,0.01,,,0.02,267.00,VWS V14.01,2013-01-24 18:52:00,
2013-01-24 10:57:00,54.8,50.1,30.05,SSW,192,0.0,2.0,84,0.01,,,0.02,304.00,VWS V14.01,2013-01-24 18:57:00,
2013-01-24 11:02:00,54.8,49.7,30.05,SSW,193,0.0,0.0,83,0.00,,,0.02,304.00,VWS V14.01,2013-01-24 19:02:00,
2013-01-24 11:07:00,55.1,49.7,30.05,SSW,192,0.0,0.0,82,0.00,,,0.02,192.00,VWS V14.01,2013-01-24 19:07:00,
2013-01-24 11:12:00,55.4,50.0,30.05,SW,217,2.0,4.0,82,0.00,,,0.02,155.00,VWS V14.01,2013-01-24 19:12:00,
2013-01-24 11:17:00,55.4,49.7,30.05,SW,219,0.0,0.0,81,0.00,,,0.02,194.00,VWS V14.01,2013-01-24 19:17:00,
2013-01-24 11:22:00,55.6,49.5,30.05,SW,217,0.0,0.0,80,0.00,,,0.02,303.00,VWS V14.01,2013-01-24 19:22:00,
2013-01-24 11:27:00,56.2,50.1,30.05,SW,217,0.0,0.0,80,0.00,,,0.02,338.00,VWS V14.01,2013-01-24 19:27:00,
2013-01-24 11:32:00,55.9,49.2,30.04,SW,217,0.0,0.0,78,0.00,,,0.02,197.00,VWS V14.01,2013-01-24 19:32:00,
2013-01-24 11:37:00,56.0,49.2,30.04,SW,217,0.0,0.0,78,0.00,,,0.02,132.00,VWS V14.01,2013-01-24 19:37:00,
2013-01-24 11:42:00,55.9,49.5,30.04,SW,230,2.0,6.0,79,0.00,,,0.02,97.00,VWS V14.01,2013-01-24 19:42:00,
2013-01-24 11:47:00,55.9,49.2,30.04,SW,232,0.0,0.0,78,0.00,,,0.02,67.00,VWS V14.01,2013-01-24 19:47:00,
2013-01-24 11:52:00,55.9,49.2,30.04,SW,232,0.0,0.0,78,0.00,,,0.02,88.00,VWS V14.01,2013-01-24 19:52:00,
2013-01-24 11:57:00,55.9,48.8,30.04,SW,230,0.0,0.0,77,0.00,,,0.02,157.00,VWS V14.01,2013-01-24 19:57:00,
2013-01-24 12:02:00,56.0,48.9,30.04,SW,229,0.0,1.0,77,0.00,,,0.02,162.00,VWS V14.01,2013-01-24 20:02:00,
2013-01-24 12:07:00,56.2,48.8,30.04,SW,232,2.0,2.0,76,0.00,,,0.02,185.00,VWS V14.01,2013-01-24 20:07:00,
2013-01-24 12:12:00,56.6,48.8,30.04,WNW,294,1.0,4.0,75,0.00,,,0.02,264.00,VWS V14.01,2013-01-24 20:12:00,
2013-01-24 12:17:00,56.9,49.1,30.04,NW,312,2.0,4.0,75,0.00,,,0.02,359.00,VWS V14.01,2013-01-24 20:17:00,
2013-01-24 12:22:00,56.9,49.1,30.04,NW,306,4.0,7.0,75,0.00,,,0.02,500.00,VWS V14.01,2013-01-24 20:22:00,
2013-01-24 12:27:00,56.9,48.7,30.04,WNW,298,7.0,8.0,74,0.00,,,0.02,385.00,VWS V14.01,2013-01-24 20:27:00,
2013-01-24 12:32:00,56.9,48.7,30.03,WNW,291,6.0,6.0,74,0.00,,,0.02,352.00,VWS V14.01,2013-01-24 20:32:00,
2013-01-24 12:37:00,57.2,48.6,30.03,WNW,298,4.0,6.0,73,0.00,,,0.02,368.00,VWS V14.01,2013-01-24 20:37:00,
2013-01-24 12:42:00,56.9,47.6,30.03,WNW,302,0.0,0.0,71,0.00,,,0.02,387.00,VWS V14.01,2013-01-24 20:42:00,
2013-01-24 12:47:00,57.5,48.2,30.03,NW,309,2.0,2.0,71,0.00,,,0.02,380.00,VWS V14.01,2013-01-24 20:47:00,
2013-01-24 12:52:00,57.6,47.9,30.03,NW,309,2.0,4.0,70,0.00,,,0.02,289.00,VWS V14.01,2013-01-24 20:52:00,
2013-01-24 12:57:00,58.3,48.2,30.03,NW,326,0.0,4.0,69,0.00,,,0.02,355.00,VWS V14.01,2013-01-24 20:57:00,
2013-01-24 13:02:00,58.7,48.6,30.02,NNW,329,0.0,2.0,69,0.00,,,0.02,357.00,VWS V14.01,2013-01-24 21:02:00,
2013-01-24 13:07:00,58.6,48.9,30.02,NE,48,6.0,6.0,70,0.00,,,0.02,290.00,VWS V14.01,2013-01-24 21:07:00,
2013-01-24 13:12:00,58.3,48.6,30.02,NE,45,2.0,2.0,70,0.00,,,0.02,230.00,VWS V14.01,2013-01-24 21:12:00,
2013-01-24 13:17:00,57.8,48.1,30.02,NE,42,0.0,1.0,70,0.00,,,0.02,208.00,VWS V14.01,2013-01-24 21:17:00,
2013-01-24 13:22:00,57.8,48.5,30.02,NE,42,0.0,2.0,71,0.00,,,0.02,222.00,VWS V14.01,2013-01-24 21:22:00,
2013-01-24 13:27:00,57.5,48.2,30.02,NW,309,4.0,7.0,71,0.00,,,0.02,204.00,VWS V14.01,2013-01-24 21:27:00,
2013-01-24 13:32:00,57.2,47.9,30.02,NNW,333,2.0,6.0,71,0.00,,,0.02,199.00,VWS V14.01,2013-01-24 21:32:00,
2013-01-24 13:37:00,57.0,48.1,30.02,NNW,335,0.0,4.0,72,0.00,,,0.02,204.00,VWS V14.01,2013-01-24 21:37:00,
2013-01-24 13:42:00,56.9,48.0,30.02,NNW,333,0.0,0.0,72,0.00,,,0.02,216.00,VWS V14.01,2013-01-24 21:42:00,
2013-01-24 13:47:00,57.2,48.6,30.01,NNW,332,0.0,2.0,73,0.00,,,0.02,208.00,VWS V14.01,2013-01-24 21:47:00,
2013-01-24 13:52:00,57.0,48.4,30.01,NW,320,2.0,6.0,73,0.00,,,0.02,204.00,VWS V14.01,2013-01-24 21:52:00,
2013-01-24 13:57:00,57.0,48.1,30.01,NW,325,0.0,0.0,72,0.00,,,0.02,187.00,VWS V14.01,2013-01-24 21:57:00,
2013-01-24 14:02:00,57.0,48.1,30.01,NW,325,0.0,0.0,72,0.00,,,0.02,195.00,VWS V14.01,2013-01-24 22:02:00,
2013-01-24 14:07:00,57.3,48.4,30.01,NW,325,0.0,4.0,72,0.00,,,0.02,243.00,VWS V14.01,2013-01-24 22:07:00,
2013-01-24 14:12:00,57.3,48.4,30.01,NW,325,0.0,0.0,72,0.00,,,0.02,250.00,VWS V14.01,2013-01-24 22:12:00,
2013-01-24 14:17:00,58.4,49.4,30.01,NNE,31,0.0,0.0,72,0.00,,,0.02,250.00,VWS V14.01,2013-01-24 22:17:00,
2013-01-24 14:22:00,58.4,48.7,30.01,NNW,340,1.0,4.0,70,0.00,,,0.02,202.00,VWS V14.01,2013-01-24 22:22:00,
2013-01-24 14:27:00,58.4,48.7,30.01,NW,312,0.0,0.0,70,0.00,,,0.02,134.00,VWS V14.01,2013-01-24 22:27:00,
2013-01-24 14:32:00,58.0,48.3,30.01,NW,315,1.0,4.0,70,0.00,,,0.02,127.00,VWS V14.01,2013-01-24 22:32:00,
2013-01-24 14:37:00,58.0,48.3,30.01,NW,313,6.0,6.0,70,0.00,,,0.02,127.00,VWS V14.01,2013-01-24 22:37:00,
2013-01-24 14:42:00,58.0,48.3,30.01,WNW,296,2.0,4.0,70,0.00,,,0.02,208.00,VWS V14.01,2013-01-24 22:42:00,
2013-01-24 14:47:00,57.8,48.1,30.01,WNW,298,0.0,4.0,70,0.00,,,0.02,179.00,VWS V14.01,2013-01-24 22:47:00,
2013-01-24 14:52:00,57.8,48.1,30.01,WNW,296,4.0,4.0,70,0.00,,,0.02,183.00,VWS V14.01,2013-01-24 22:52:00,
2013-01-24 14:57:00,57.8,48.1,30.01,WNW,296,2.0,6.0,70,0.00,,,0.02,174.00,VWS V14.01,2013-01-24 22:57:00,
2013-01-24 15:02:00,57.6,48.3,30.01,WNW,285,1.0,4.0,71,0.00,,,0.02,153.00,VWS V14.01,2013-01-24 23:02:00,
2013-01-24 15:07:00,57.8,48.1,30.01,WNW,285,0.0,0.0,70,0.00,,,0.02,143.00,VWS V14.01,2013-01-24 23:07:00,
2013-01-24 15:12:00,58.0,48.3,30.01,WNW,289,0.0,2.0,70,0.00,,,0.02,144.00,VWS V14.01,2013-01-24 23:12:00,
2013-01-24 15:17:00,58.1,48.4,30.01,WNW,298,0.0,0.0,70,0.00,,,0.02,130.00,VWS V14.01,2013-01-24 23:17:00,
2013-01-24 15:22:00,58.3,48.2,30.01,WNW,298,0.0,2.0,69,0.00,,,0.02,143.00,VWS V14.01,2013-01-24 23:22:00,
2013-01-24 15:27:00,58.6,48.5,30.01,WNW,298,1.0,2.0,69,0.00,,,0.02,174.00,VWS V14.01,2013-01-24 23:27:00,
2013-01-24 15:32:00,58.4,47.9,30.00,WNW,301,1.0,4.0,68,0.00,,,0.02,132.00,VWS V14.01,2013-01-24 23:32:00,
2013-01-24 15:37:00,58.6,48.1,30.00,WNW,296,4.0,6.0,68,0.00,,,0.02,123.00,VWS V14.01,2013-01-24 23:37:00,
2013-01-24 15:42:00,58.6,47.7,30.00,WNW,292,2.0,4.0,67,0.00,,,0.02,111.00,VWS V14.01,2013-01-24 23:42:00,
2013-01-24 15:47:00,58.6,47.7,30.01,WNW,299,2.0,7.0,67,0.00,,,0.02,107.00,VWS V14.01,2013-01-24 23:47:00,
2013-01-24 15:52:00,58.7,47.8,30.01,West,278,1.0,6.0,67,0.00,,,0.02,93.00,VWS V14.01,2013-01-24 23:52:00,
2013-01-24 15:57:00,58.7,47.8,30.01,WNW,298,1.0,4.0,67,0.00,,,0.02,127.00,VWS V14.01,2013-01-24 23:57:00,
2013-01-24 16:02:00,58.9,47.6,30.02,West,277,2.0,4.0,66,0.00,,,0.02,102.00,VWS V14.01,2013-01-25 00:02:00,
2013-01-24 16:07:00,59.2,47.9,30.02,WNW,295,4.0,8.0,66,0.00,,,0.02,95.00,VWS V14.01,2013-01-25 00:07:00,
2013-01-24 16:12:00,59.2,47.9,30.02,NW,311,1.0,6.0,66,0.00,,,0.02,86.00,VWS V14.01,2013-01-25 00:12:00,
2013-01-24 16:17:00,59.2,47.9,30.02,NW,311,4.0,4.0,66,0.00,,,0.02,69.00,VWS V14.01,2013-01-25 00:17:00,
2013-01-24 16:22:00,59.0,47.3,30.02,NW,308,0.0,4.0,65,0.00,,,0.02,63.00,VWS V14.01,2013-01-25 00:22:00,
2013-01-24 16:27:00,59.0,47.3,30.02,WNW,298,2.0,6.0,65,0.00,,,0.02,67.00,VWS V14.01,2013-01-25 00:27:00,
2013-01-24 16:32:00,58.9,47.6,30.02,WNW,298,0.0,0.0,66,0.00,,,0.02,65.00,VWS V14.01,2013-01-25 00:32:00,
2013-01-24 16:37:00,58.7,47.4,30.02,WNW,299,2.0,6.0,66,0.00,,,0.02,46.00,VWS V14.01,2013-01-25 00:37:00,
2013-01-24 16:42:00,58.7,47.4,30.02,NW,304,1.0,4.0,66,0.00,,,0.02,21.00,VWS V14.01,2013-01-25 00:42:00,
2013-01-24 16:47:00,58.6,47.3,30.03,NW,304,0.0,1.0,66,0.00,,,0.02,14.00,VWS V14.01,2013-01-25 00:47:00,
2013-01-24 16:52:00,58.6,47.3,30.03,NW,304,0.0,2.0,66,0.00,,,0.02,11.00,VWS V14.01,2013-01-25 00:52:00,
2013-01-24 16:57:00,58.6,47.7,30.03,NW,304,0.0,0.0,67,0.00,,,0.02,0.00,VWS V14.01,2013-01-25 00:57:00,
2013-01-24 17:02:00,58.4,47.5,30.04,NW,304,0.0,0.0,67,0.00,,,0.02,0.00,VWS V14.01,2013-01-25 01:02:00,
2013-01-24 17:07:00,58.3,47.4,30.04,NW,304,0.0,0.0,67,0.00,,,0.02,0.00,VWS V14.01,2013-01-25 01:07:00,
2013-01-24 17:12:00,58.3,47.4,30.04,NW,304,0.0,0.0,67,0.00,,,0.02,0.00,VWS V14.01,2013-01-25 01:12:00,
2013-01-24 17:17:00,58.3,47.4,30.04,NW,304,0.0,0.0,67,0.00,,,0.02,0.00,VWS V14.01,2013-01-25 01:17:00,
2013-01-24 17:22:00,58.1,47.2,30.04,NW,304,0.0,0.0,67,0.00,,,0.02,0.00,VWS V14.01,2013-01-25 01:22:00,
2013-01-24 17:27:00,58.0,47.1,30.04,NW,304,0.0,0.0,67,0.00,,,0.02,0.00,VWS V14.01,2013-01-25 01:27:00,
2013-01-24 17:32:00,57.8,47.3,30.04,NW,304,0.0,0.0,68,0.00,,,0.02,0.00,VWS V14.01,2013-01-25 01:32:00,
2013-01-24 17:37:00,57.6,47.1,30.04,NW,304,0.0,0.0,68,0.00,,,0.02,0.00,VWS V14.01,2013-01-25 01:37:00,
2013-01-24 17:42:00,57.5,47.4,30.04,NW,304,0.0,0.0,69,0.00,,,0.02,0.00,VWS V14.01,2013-01-25 01:42:00,
2013-01-24 17:47:00,57.3,47.2,30.04,NW,305,0.0,0.0,69,0.00,,,0.02,0.00,VWS V14.01,2013-01-25 01:47:00,
2013-01-24 17:52:00,57.2,47.5,30.04,NW,304,0.0,0.0,70,0.00,,,0.02,0.00,VWS V14.01,2013-01-25 01:52:00,
2013-01-24 17:57:00,57.0,47.3,30.04,NW,304,2.0,2.0,70,0.00,,,0.02,0.00,VWS V14.01,2013-01-25 01:57:00,
2013-01-24 18:02:00,56.7,47.0,30.05,NW,304,2.0,2.0,70,0.00,,,0.02,0.00,VWS V14.01,2013-01-25 02:02:00,
2013-01-24 18:07:00,56.5,47.2,30.05,NW,305,4.0,4.0,71,0.00,,,0.02,0.00,VWS V14.01,2013-01-25 02:07:00,
2013-01-24 18:12:00,56.3,47.0,30.05,NW,305,0.0,0.0,71,0.00,,,0.02,0.00,VWS V14.01,2013-01-25 02:12:00,
2013-01-24 18:17:00,56.2,47.3,30.05,NW,305,1.0,4.0,72,0.00,,,0.02,0.00,VWS V14.01,2013-01-25 02:17:00,
2013-01-24 18:22:00,56.0,47.1,30.05,NW,305,0.0,2.0,72,0.00,,,0.02,0.00,VWS V14.01,2013-01-25 02:22:00,
2013-01-24 18:27:00,56.0,47.5,30.05,NW,305,0.0,2.0,73,0.00,,,0.02,0.00,VWS V14.01,2013-01-25 02:27:00,
2013-01-24 18:32:00,55.9,47.4,30.06,NW,305,4.0,4.0,73,0.00,,,0.02,0.00,VWS V14.01,2013-01-25 02:32:00,
2013-01-24 18:37:00,55.7,47.2,30.06,NW,305,0.0,0.0,73,0.00,,,0.02,0.00,VWS V14.01,2013-01-25 02:37:00,
2013-01-24 18:42:00,55.7,47.2,30.06,NW,305,0.0,2.0,73,0.00,,,0.02,0.00,VWS V14.01,2013-01-25 02:42:00,
2013-01-24 18:47:00,55.6,47.5,30.06,NW,305,0.0,4.0,74,0.00,,,0.02,0.00,VWS V14.01,2013-01-25 02:47:00,
2013-01-24 18:52:00,55.4,47.3,30.06,NW,305,0.0,2.0,74,0.00,,,0.02,0.00,VWS V14.01,2013-01-25 02:52:00,
2013-01-24 18:57:00,55.3,47.2,30.06,NW,305,0.0,0.0,74,0.00,,,0.02,0.00,VWS V14.01,2013-01-25 02:57:00,
2013-01-24 19:02:00,55.3,47.5,30.06,NW,305,2.0,6.0,75,0.00,,,0.02,0.00,VWS V14.01,2013-01-25 03:02:00,
2013-01-24 19:07:00,55.1,47.3,30.06,NW,306,0.0,0.0,75,0.00,,,0.02,0.00,VWS V14.01,2013-01-25 03:07:00,
2013-01-24 19:12:00,55.1,47.7,30.06,NW,306,1.0,2.0,76,0.00,,,0.02,0.00,VWS V14.01,2013-01-25 03:12:00,
2013-01-24 19:17:00,55.0,47.6,30.07,NW,306,4.0,4.0,76,0.00,,,0.02,0.00,VWS V14.01,2013-01-25 03:17:00,
2013-01-24 19:22:00,55.0,47.6,30.07,West,281,1.0,4.0,76,0.00,,,0.02,0.00,VWS V14.01,2013-01-25 03:22:00,
2013-01-24 19:27:00,55.0,47.9,30.07,WNW,288,1.0,4.0,77,0.00,,,0.02,0.00,VWS V14.01,2013-01-25 03:27:00,
2013-01-24 19:32:00,55.0,47.9,30.07,WNW,292,1.0,4.0,77,0.00,,,0.02,0.00,VWS V14.01,2013-01-25 03:32:00,
2013-01-24 19:37:00,54.8,47.7,30.07,WNW,294,1.0,2.0,77,0.00,,,0.02,0.00,VWS V14.01,2013-01-25 03:37:00,
2013-01-24 19:42:00,54.7,48.0,30.07,WNW,294,0.0,1.0,78,0.00,,,0.02,0.00,VWS V14.01,2013-01-25 03:42:00,
2013-01-24 19:47:00,54.5,47.8,30.06,WNW,294,0.0,0.0,78,0.00,,,0.02,0.00,VWS V14.01,2013-01-25 03:47:00,
2013-01-24 19:52:00,54.5,48.1,30.06,WNW,294,0.0,2.0,79,0.00,,,0.02,0.00,VWS V14.01,2013-01-25 03:52:00,
2013-01-24 19:57:00,54.5,48.1,30.06,WNW,295,4.0,6.0,79,0.00,,,0.02,0.00,VWS V14.01,2013-01-25 03:57:00,
2013-01-24 20:02:00,54.4,48.0,30.06,NW,305,0.0,0.0,79,0.00,,,0.02,0.00,VWS V14.01,2013-01-25 04:02:00,
2013-01-24 20:07:00,54.4,48.4,30.06,NW,313,0.0,2.0,80,0.00,,,0.02,0.00,VWS V14.01,2013-01-25 04:07:00,
2013-01-24 20:12:00,54.2,48.2,30.06,NW,312,0.0,6.0,80,0.00,,,0.02,0.00,VWS V14.01,2013-01-25 04:12:00,
2013-01-24 20:17:00,54.2,48.2,30.07,NW,313,0.0,6.0,80,0.00,,,0.02,0.00,VWS V14.01,2013-01-25 04:17:00,
2013-01-24 20:22:00,54.1,48.4,30.07,NW,304,2.0,4.0,81,0.00,,,0.02,0.00,VWS V14.01,2013-01-25 04:22:00,
2013-01-24 20:27:00,54.1,48.4,30.07,WNW,299,1.0,4.0,81,0.00,,,0.02,0.00,VWS V14.01,2013-01-25 04:27:00,
2013-01-24 20:32:00,53.9,48.2,30.07,NW,308,2.0,6.0,81,0.00,,,0.02,0.00,VWS V14.01,2013-01-25 04:32:00,
2013-01-24 20:37:00,53.8,48.4,30.07,NW,313,1.0,6.0,82,0.00,,,0.02,0.00,VWS V14.01,2013-01-25 04:37:00,
2013-01-24 20:42:00,53.8,48.4,30.07,WNW,292,2.0,7.0,82,0.00,,,0.02,0.00,VWS V14.01,2013-01-25 04:42:00,
2013-01-24 20:47:00,53.6,48.6,30.07,WNW,296,4.0,6.0,83,0.00,,,0.02,0.00,VWS V14.01,2013-01-25 04:47:00,
2013-01-24 20:52:00,53.6,48.6,30.07,WNW,292,2.0,6.0,83,0.00,,,0.02,0.00,VWS V14.01,2013-01-25 04:52:00,
2013-01-24 20:57:00,53.5,48.5,30.07,NW,318,1.0,6.0,83,0.00,,,0.02,0.00,VWS V14.01,2013-01-25 04:57:00,
2013-01-24 21:00:00,53.5,48.5,30.07,NW,315,4.0,7.0,83,0.00,,,0.02,0.00,VWS V14.01,2013-01-25 05:00:00,
2013-01-24 21:01:00,53.3,48.3,30.06,NW,320,4.0,6.0,83,0.00,,,0.02,0.00,VWS V14.01,2013-01-25 05:01:00,
2013-01-24 21:03:00,53.3,48.3,30.06,NW,312,6.0,6.0,83,0.00,,,0.02,0.00,VWS V14.01,2013-01-25 05:03:00,
2013-01-24 21:08:00,53.3,48.6,30.06,NW,323,0.0,0.0,84,0.00,,,0.02,0.00,VWS V14.01,2013-01-25 05:08:00,
2013-01-24 21:13:00,53.3,48.6,30.06,NW,323,0.0,4.0,84,0.00,,,0.02,0.00,VWS V14.01,2013-01-25 05:13:00,
2013-01-24 21:18:00,53.2,48.5,30.06,NW,316,4.0,6.0,84,0.00,,,0.02,0.00,VWS V14.01,2013-01-25 05:18:00,
2013-01-24 21:23:00,53.2,48.8,30.06,NW,316,0.0,6.0,85,0.00,,,0.02,0.00,VWS V14.01,2013-01-25 05:23:00,
2013-01-24 21:28:00,53.2,48.8,30.06,NW,316,0.0,0.0,85,0.00,,,0.02,0.00,VWS V14.01,2013-01-25 05:28:00,
2013-01-24 21:33:00,53.1,48.7,30.07,NW,309,2.0,6.0,85,0.00,,,0.02,0.00,VWS V14.01,2013-01-25 05:33:00,
2013-01-24 21:38:00,53.1,49.0,30.07,NW,326,2.0,4.0,86,0.00,,,0.02,0.00,VWS V14.01,2013-01-25 05:38:00,
2013-01-24 21:43:00,53.1,49.0,30.07,NW,313,6.0,6.0,86,0.00,,,0.02,0.00,VWS V14.01,2013-01-25 05:43:00,
2013-01-24 21:48:00,53.1,49.0,30.07,WNW,299,2.0,4.0,86,0.00,,,0.02,0.00,VWS V14.01,2013-01-25 05:48:00,
2013-01-24 21:53:00,53.1,49.0,30.07,NW,318,4.0,4.0,86,0.00,,,0.02,0.00,VWS V14.01,2013-01-25 05:53:00,
2013-01-24 21:58:00,52.9,49.1,30.07,WNW,299,4.0,7.0,87,0.00,,,0.02,0.00,VWS V14.01,2013-01-25 05:58:00,
2013-01-24 22:03:00,52.9,49.1,30.07,WNW,296,4.0,4.0,87,0.00,,,0.02,0.00,VWS V14.01,2013-01-25 06:03:00,
2013-01-24 22:08:00,52.9,49.1,30.07,NW,308,1.0,6.0,87,0.00,,,0.02,0.00,VWS V14.01,2013-01-25 06:08:00,
2013-01-24 22:13:00,52.9,49.1,30.07,NW,308,2.0,4.0,87,0.00,,,0.02,0.00,VWS V14.01,2013-01-25 06:13:00,
2013-01-24 22:18:00,52.8,49.3,30.07,WNW,298,6.0,7.0,88,0.00,,,0.02,0.00,VWS V14.01,2013-01-25 06:18:00,
2013-01-24 22:23:00,52.8,49.3,30.07,NW,313,2.0,7.0,88,0.00,,,0.02,0.00,VWS V14.01,2013-01-25 06:23:00,
2013-01-24 22:28:00,52.8,49.3,30.07,NW,306,4.0,4.0,88,0.00,,,0.02,0.00,VWS V14.01,2013-01-25 06:28:00,
2013-01-24 22:33:00,52.8,49.7,30.08,WNW,296,1.0,4.0,89,0.00,,,0.02,0.00,VWS V14.01,2013-01-25 06:33:00,
2013-01-24 22:38:00,52.8,49.7,30.08,West,278,0.0,4.0,89,0.00,,,0.02,0.00,VWS V14.01,2013-01-25 06:38:00,
2013-01-24 22:43:00,52.8,49.7,30.08,West,280,0.0,2.0,89,0.00,,,0.02,0.00,VWS V14.01,2013-01-25 06:43:00,
2013-01-24 22:48:00,52.6,49.5,30.08,WNW,288,0.0,0.0,89,0.00,,,0.02,0.00,VWS V14.01,2013-01-25 06:48:00,
2013-01-24 22:53:00,52.6,49.5,30.08,WNW,296,2.0,2.0,89,0.00,,,0.02,0.00,VWS V14.01,2013-01-25 06:53:00,
2013-01-24 22:58:00,52.6,49.8,30.08,WNW,299,0.0,0.0,90,0.00,,,0.02,0.00,VWS V14.01,2013-01-25 06:58:00,
2013-01-24 23:03:00,52.6,49.8,30.08,WNW,301,0.0,2.0,90,0.00,,,0.02,0.00,VWS V14.01,2013-01-25 07:03:00,
2013-01-24 23:08:00,52.5,49.7,30.08,WNW,301,0.0,0.0,90,0.00,,,0.02,0.00,VWS V14.01,2013-01-25 07:08:00,
2013-01-24 23:13:00,52.5,49.7,30.08,NW,311,2.0,2.0,90,0.00,,,0.02,0.00,VWS V14.01,2013-01-25 07:13:00,
2013-01-24 23:18:00,52.5,49.7,30.08,NW,311,2.0,2.0,90,0.00,,,0.02,0.00,VWS V14.01,2013-01-25 07:18:00,
2013-01-24 23:23:00,52.5,49.7,30.08,NW,311,0.0,2.0,90,0.00,,,0.02,0.00,VWS V14.01,2013-01-25 07:23:00,
2013-01-24 23:28:00,52.5,50.0,30.08,NW,309,1.0,2.0,91,0.00,,,0.02,0.00,VWS V14.01,2013-01-25 07:28:00,
2013-01-24 23:33:00,52.5,50.0,30.08,NW,311,0.0,6.0,91,0.00,,,0.02,0.00,VWS V14.01,2013-01-25 07:33:00,
2013-01-24 23:38:00,52.3,49.8,30.08,NW,313,0.0,4.0,91,0.00,,,0.02,0.00,VWS V14.01,2013-01-25 07:38:00,
2013-01-24 23:43:00,52.3,49.8,30.08,NW,313,0.0,0.0,91,0.00,,,0.02,0.00,VWS V14.01,2013-01-25 07:43:00,
2013-01-24 23:48:00,52.5,50.0,30.08,NW,313,0.0,0.0,91,0.00,,,0.02,0.00,VWS V14.01,2013-01-25 07:48:00,
2013-01-24 23:53:00,52.3,50.0,30.08,NW,313,1.0,4.0,92,0.00,,,0.02,0.00,VWS V14.01,2013-01-25 07:53:00,
2013-01-24 23:58:00,52.3,50.0,30.08,NW,316,0.0,2.0,92,0.00,,,0.02,0.00,VWS V14.01,2013-01-25 07:58:00,